Orbital Elements at Epoch 2459200.5 (2020-Dec-17.0) TDB
Reference: JPL 21 (heliocentric ecliptic J2000)
Element | Value | Uncertainty (1-sigma) | Units |
e | .2029191996913368 | 2.9349e-08 | |
a | 2.676983575859324 | 1.0177e-08 | au |
q | 2.133772211059097 | 7.7809e-08 | au |
i | 2.804606112823828 | 3.9162e-06 | deg |
node | 27.16314997500878 | 7.2989e-05 | deg |
peri | 308.6876100811805 | 7.3756e-05 | deg |
M | 61.00356581598437 | 1.0091e-05 | deg |
tp | 2458929.406123697128 (2020-Mar-20.90612370) | 4.435e-05 | TDB |
period | 1599.804768190486 4.38 | 9.1227e-06 2.498e-08 | d yr |
n | .2250274578236133 | 1.2832e-09 | deg/d |
Q | 3.220194940659551 | 1.2242e-08 | au |
|
| | Orbit Determination Parameters
Additional Information
|